DECAYED

COSMOS 2251 DEB, 35605 (Decayed)

Orbit data source: Space-Track

COSMOS 2251 DEB, 35605 was space debris in LEO originally from a launch on Wed, 16 Jun 1993 UTC launched from the Plesetsk Missile And Space Complex (PKMTR). The debris from Iridium 33, an American commercial communications satellite, has been tracked extensively since its accidental collision with the defunct Russian satellite Cosmos 2251 in 2009. This event, occurring at high speed in low Earth orbit (LEO), generated thousands of pieces of space debris, significantly increasing the risk of further collisions. The Iridium 33 debris cloud has impacted space traffic management and orbital debris mitigation strategies, making it a subject of ongoing study in space situational awareness.

Not visible in the next 10 days
Identifier
35605, 1993-036AMY
Orbit
Decayed
Country
Flag of CISCIS
Related business
Manufacturer
Unknown
Mission
Decayed spacecraft
Bus & Motor
Unknown
Mass
Unknown
Launch date (UTC)
1993-06-16 (33 years ago)
Launch vehicle
Unknown
Launch site
Plesetsk Missile And Space Complex (PKMTR)
Object type
Payload
Rocket body
Debris
Shape & HBR
Unknown shape, 0.1 m
Radar Cross Section
Small (<0.1 m²)

Expand to show TLE details & history
Last TLE update: 5 months ago

TLE from 5 months ago
0 COSMOS 2251 DEB
1 35605U 93036AMY 25356.60884269  .00262511  00000-0  66900-2 0  9994
2 35605  73.8690 315.1978 0022804 235.9327 123.9715 15.38179315661234
Epoch: 2025-12-22T14:36Z
TLE epoch observation values (Epoch: 2025-12-22T14:36:44.008Z)
Latitude
0.00002°
Longitude
4.60995°
Altitude
462.945 km
Speed
7.63 km/s
True Right ascension
21h 00m 47s
True Declination
0° 00' 00"
Sunlit
Object was in daylight at epoch
Visualization orbit readout
Latitude
Unknown
Longitude
Unknown
Altitude
Unknown
Speed
Unknown
Apparent Right ascension
Unknown
Apparent Declination
Unknown
Sunlit
N/A
Visualization observer readout
Local Sidereal Time
18:10:05
Azimuth
Unknown
Elevation
Unknown
Doppler factor
Unknown
Orbital elements
Apogee altitude
464.589 km
Perigee altitude
433.452 km
Semi-major axis
6,827.158 km
Eccentricity
0.00228
Inclination
73.869°
RAAN
315.1978°
Arg. of periapsis
235.9327°
True anomaly
124.18787°
Mean anomaly
123.9715°
Eccentric anomaly
124.07972°
Mean motion
3.84754 °/min
Orbital period
93.57 mins
BSTAR
0.00669
Loading maneuver chart data...
Computing Atmospheric mass density...

Documentation

Showing up to 5 results
|